This demonstration page uses our WeatherBlox Daily Observations layout. Learn more.

Left ArrowRight Arrow

41.55636, -103.73856

Hourly Observations for March 12, 2017

Temp ( °F °C ) Dew Point ( °F °C ) Humidity (%) Winds ( mph kmh ) Pressure ( in mb ) Visibility ( mi km ) Precip ( " mm )
12:53 am 00:53 Clear 41 5 33 0.6 73 73 E 12 19 30.03 1017 10 16 0.00 0.00
1:53 am 01:53 Clear 45 7.2 32 0 61 61 SE 7 11 29.98 1015 10 16 0.00 0.00
3:53 am 03:53 Clear 47 8.3 32 0 56 56 SSW 17 28 29.90 1012 10 16 0.00 0.00
4:53 am 04:53 Clear 44 6.7 31 -0.6 60 60 SSW 18 30 29.86 1011 10 16 0.00 0.00
5:53 am 05:53 Clear 41 5 30 -1.1 65 65 S 13 20 29.85 1011 10 16 0.00 0.00
6:53 am 06:53 Clear 40 4.4 30 -1.1 68 68 SSW 9 15 29.84 1011 10 16 0.00 0.00
7:53 am 07:53 Mostly Cloudy 37 2.8 31 -0.6 79 79 Calm 29.87 1012 10 16 0.00 0.00
8:53 am 08:53 Sunny 43 6.1 32 0 65 65 NNW 5 7 29.87 1012 10 16 0.00 0.00
9:53 am 09:53 Mostly Cloudy 57 13.9 31 -0.6 37 37 WNW 21 33 29.84 1010 10 16 0.00 0.00
10:53 am 10:53 Mostly Sunny 50 10 32 0 50 50 N 36 57 29.92 1013 10 16 0.00 0.00
11:53 am 11:53 Cloudy with Light Rain 43 6.1 32 0 65 65 NNW 37 59 30.03 1017 10 16 0.00 0.03
12:53 pm 12:53 Mostly Cloudy 49 9.4 31 -0.6 50 50 NW 26 43 30.01 1016 10 16 0.01 0.25
1:53 pm 13:53 Mostly Sunny 54 12.2 27 -2.8 35 35 NNW 24 39 29.98 1015 10 16 0.00 0.00
2:53 pm 14:53 Mostly Cloudy 51 10.6 27 -2.8 39 39 NW 18 30 29.97 1015 10 16 0.00 0.00
3:53 pm 15:53 Cloudy 53 11.7 24 -4.4 32 32 NNW 18 30 29.96 1015 10 16 0.00 0.00
4:53 pm 16:53 Mostly Cloudy 52 11.1 27 -2.8 38 38 NNW 24 39 30.00 1016 10 16 0.00 0.03
5:53 pm 17:53 Mostly Cloudy 48 8.9 29 -1.7 48 48 N 24 39 30.04 1017 10 16 0.00 0.03
6:53 pm 18:53 Mostly Cloudy 45 7.2 27 -2.8 49 49 NNW 17 28 30.10 1019 10 16 0.00 0.00
7:53 pm 19:53 Cloudy 41 5 27 -2.8 57 57 N 22 35 30.17 1022 10 16 0.00 0.00
8:53 pm 20:53 Cloudy 38 3.3 27 -2.8 65 65 NNW 18 30 30.19 1022 10 16 0.00 0.00
9:53 pm 21:53 Partly Cloudy 34 1.1 24 -4.4 67 67 N 18 30 30.19 1022 10 16 0.00 0.00
10:53 pm 22:53 Cloudy 32 0 24 -4.4 73 73 N 7 11 30.25 1024 10 16 0.00 0.00
11:53 pm 23:53 Partly Cloudy 28 -2.2 22 -5.6 78 78 N 9 15 30.30 1026 10 16 0.00 0.00

Powered by AerisWeather